sat.trackr.live / text

‹ back to catalog

STARLINK-32454

NORAD 62142 · 2024-224D

PAYLOAD ACTIVE UNKNOWN

§ Identity

Operator
Country
US
Launch date
2024-11-30
Launch site
AFETR
Launch vehicle
Mass (kg)
RCS (m²)

Purposes: comms

External: N2YO · Heavens-Above · Gunter

§ Orbital elements

Epoch: 2026-05-25T04:42:42.270912Z

Period
94.27 min
Inclination
43.0004°
Eccentricity
0.0001245
Mean motion
15.27588348 rev/d
Perigee alt
482.2 km
Apogee alt
483.9 km
Semi-major
6,861.2 km
B*
6.4624e-4
RAAN
93.5622°
Arg perigee
266.6656°
Mean anomaly
93.4053°
Rev number
8,409

§ Raw data

STARLINK-324541 62142U 24224D   26145.19632258  .00017568  00000+0  64624-3 0  99942 62142  43.0004  93.5622 0001245 266.6656  93.4053 15.27588348 84090

JSON: /api/v1/satellites/62142 · /tle

For live sub-satellite position, see the globe view (requires WebGL).

§ Visibility from observer

Set your observer location to see the next 7 days of passes ≥ 10°. The values pass through the URL so the page stays shareable.

No JS? Fill the form by hand. The geolocation button needs JavaScript.